Houston, TX

9:50 AM CST on February 14, 2016 (GMT -0600)
Hobby

Weather History for KHOU - June, 2013

Change the Weather History Date:

Saturday, June 8, 2013

  Actual Average Record
Temperature  
Mean Temperature 80 °F 82 °F  
Max Temperature 92 °F 91 °F 99 °F (1980)
Min Temperature 68 °F 72 °F 60 °F (1977)
Cooling Degree Days 15 17  
Month to date cooling degree days 132 128  
Year to date cooling degree days 702 780  
Since 1 June cooling degree days 132 128  
Growing Degree Days 30 (Base 50)    
Moisture  
Dew Point 66 °F    
Average Humidity 63    
Maximum Humidity 82    
Minimum Humidity 44    
Precipitation  
Precipitation 0.00 in 0.19 in 8.13 in (2001)
Month to date precipitation 1.63 1.43  
Year to date precipitation 10.95 19.82  
Sea Level Pressure  
Sea Level Pressure 29.90 in    
Wind  
Wind Speed 4 mph (SSE)    
Max Wind Speed 35 mph    
Max Gust Speed 41 mph    
Visibility 10 miles    
Events Thunderstorm    
T = Trace of Precipitation, MM = Missing Value Source: NWS Daily Summary

Daily Weather History Graph

Daily Weather History Graph

Search for Another Location

Airport or City:

Trip Planner

Search our weather history database for the weather conditions in past years. The results will help you decide how hot, cold, wet, or windy it might be!

Date:

Astronomy

Jun. 08, 2013 Rise Set
Actual Time 6:20 AM CDT 8:20 PM CDT
Civil Twilight 5:53 AM CDT 8:47 PM CDT
Nautical Twilight 5:20 AM CDT 9:20 PM CDT
Astronomical Twilight 4:45 AM CDT 9:55 PM CDT
Moon 6:24 AM CDT (6/8) 8:27 PM CDT (6/8)
Length of Visible Light 14h 54m
Length of Day
14h 00m
New Moon, 0% of the Moon is Illuminated
Jun 8
New Moon
Jun 16
First Quarter
Jun 23
Full
Jun 29
Last Quarter
Jul 8
New

Hourly Weather History & Observations

Time (CDT) Temp. Heat Index Dew Point Humidity Pressure Visibility Wind Dir Wind Speed Gust Speed Precip Events Conditions
12:53 AM 77.0 °F - 62.1 °F 60% 29.91 in 10.0 mi Calm Calm - N/A   Scattered Clouds
1:53 AM 75.9 °F - 63.0 °F 64% 29.90 in 10.0 mi Calm Calm - N/A   Scattered Clouds
2:53 AM 75.9 °F - 62.1 °F 62% 29.91 in 10.0 mi Calm Calm - N/A   Mostly Cloudy
3:53 AM 75.9 °F - 63.0 °F 64% 29.90 in 10.0 mi Calm Calm - N/A   Mostly Cloudy
4:53 AM 75.9 °F - 62.1 °F 62% 29.91 in 10.0 mi North 3.5 mph - N/A   Clear
5:29 AM 75.2 °F - 62.6 °F 65% 29.89 in 10.0 mi Calm Calm - N/A   Mostly Cloudy
5:53 AM 72.0 °F - 63.0 °F 73% 29.90 in 10.0 mi Calm Calm - N/A   Mostly Cloudy
6:53 AM 72.0 °F - 63.0 °F 73% 29.91 in 10.0 mi NE 3.5 mph - N/A   Mostly Cloudy
7:53 AM 75.9 °F - 64.9 °F 69% 29.93 in 10.0 mi NNE 3.5 mph - N/A   Mostly Cloudy
8:53 AM 80.1 °F 81.7 °F 64.0 °F 58% 29.94 in 10.0 mi NE 4.6 mph - N/A   Mostly Cloudy
9:53 AM 82.9 °F 85.4 °F 66.9 °F 58% 29.94 in 10.0 mi East 3.5 mph - N/A   Scattered Clouds
10:53 AM 84.9 °F 87.6 °F 66.9 °F 55% 29.94 in 10.0 mi SSW 5.8 mph - N/A   Scattered Clouds
11:53 AM 86.0 °F 89.4 °F 68.0 °F 55% 29.94 in 10.0 mi South 6.9 mph - N/A   Mostly Cloudy
12:53 PM 87.1 °F 90.6 °F 68.0 °F 53% 29.92 in 10.0 mi SW 3.5 mph - N/A   Mostly Cloudy
1:53 PM 89.1 °F 93.7 °F 69.1 °F 52% 29.89 in 10.0 mi South 5.8 mph - N/A   Mostly Cloudy
2:38 PM 87.8 °F 91.4 °F 68.0 °F 52% 29.88 in 10.0 mi SSW 25.3 mph 31.1 mph N/A Thunderstorm Thunderstorm
2:53 PM 78.1 °F - 61.0 °F 56% 29.89 in 10.0 mi South 19.6 mph 27.6 mph N/A Thunderstorm Thunderstorm
3:53 PM 79.0 °F - 71.1 °F 77% 29.90 in 10.0 mi East 6.9 mph - 0.02 in Thunderstorm Thunderstorm
4:10 PM 78.8 °F - 71.6 °F 78% 29.89 in 10.0 mi SSE 8.1 mph - N/A   Mostly Cloudy
4:53 PM 80.1 °F 83.2 °F 70.0 °F 71% 29.88 in 10.0 mi South 9.2 mph - N/A   Mostly Cloudy
5:53 PM 82.0 °F 84.9 °F 68.0 °F 62% 29.85 in 10.0 mi SSE 8.1 mph - N/A   Mostly Cloudy
6:53 PM 82.9 °F 85.8 °F 68.0 °F 60% 29.85 in 10.0 mi SW 5.8 mph - N/A   Mostly Cloudy
7:53 PM 81.0 °F 84.1 °F 69.1 °F 67% 29.87 in 10.0 mi South 4.6 mph - N/A   Mostly Cloudy
8:53 PM 79.0 °F - 69.1 °F 72% 29.88 in 10.0 mi SSE 3.5 mph - N/A   Mostly Cloudy
9:53 PM 78.1 °F - 69.1 °F 74% 29.88 in 10.0 mi South 3.5 mph - N/A   Clear
10:53 PM 77.0 °F - 69.1 °F 76% 29.91 in 10.0 mi SSE 4.6 mph - N/A   Scattered Clouds
11:53 PM 77.0 °F - 69.1 °F 76% 29.91 in 10.0 mi SE 6.9 mph - N/A   Mostly Cloudy